contact:dominique.lefevre@mio.osupytheas.fr, maurice.libes@osupytheas.fr, didier.mallarino@osupytheas.fr
Project:EMSO http://www.emso-fr.org/EMSO-France
Depth: 2436.0 m
Title:EMSO Ligure Ouest : Data MII capteur CSTAR
DateTime,Latitude,Longitude,Instrument_Serial,Reference_Counts,Signal_Counts,Corrected_Signal_raw_counts,Calculated_Beam_c_inverse_meters,Internal_thermistor_counts
DateTime,Latitude,Longitude,Instrument_Serial,Reference_Counts,Signal_Counts,Corrected_Signal_raw_counts,Calculated_Beam_c_inverse_meters,Internal_thermistor_counts
2023-12-30T00:02:01,42.805,6.029,CST-1368DR,4073,4291,11161,01.343,553
2023-12-30T00:05:03,42.805,6.029,CST-1368DR,4072,4287,11152,01.347,552
2023-12-30T00:08:04,42.805,6.029,CST-1368DR,4072,4289,11157,01.345,553
2023-12-30T00:11:06,42.805,6.029,CST-1368DR,4072,4289,11157,01.345,553
2023-12-30T00:14:07,42.805,6.029,CST-1368DR,4072,4288,11156,01.345,553
2023-12-30T00:17:09,42.805,6.029,CST-1368DR,4072,4289,11158,01.345,553
2023-12-30T00:20:10,42.805,6.029,CST-1368DR,4072,4287,11154,01.346,553
2023-12-30T00:23:12,42.805,6.029,CST-1368DR,4073,4286,11147,01.349,553
2023-12-30T00:26:14,42.805,6.029,CST-1368DR,4072,4285,11148,01.348,553
2023-12-30T00:29:15,42.805,6.029,CST-1368DR,4073,4285,11146,01.349,553
2023-12-30T00:32:17,42.805,6.029,CST-1368DR,4073,4288,11152,01.347,553
2023-12-30T00:35:18,42.805,6.029,CST-1368DR,4073,4288,11153,01.346,553
2023-12-30T00:38:20,42.805,6.029,CST-1368DR,4073,4287,11150,01.347,553
2023-12-30T00:41:22,42.805,6.029,CST-1368DR,4073,4286,11148,01.348,553
2023-12-30T00:44:23,42.805,6.029,CST-1368DR,4073,4288,11152,01.347,553
2023-12-30T00:47:25,42.805,6.029,CST-1368DR,4073,4288,11154,01.346,553
2023-12-30T00:50:26,42.805,6.029,CST-1368DR,4073,4287,11151,01.347,553
2023-12-30T00:53:28,42.805,6.029,CST-1368DR,4073,4286,11148,01.348,553
2023-12-30T00:56:29,42.805,6.029,CST-1368DR,4073,4287,11150,01.347,553
2023-12-30T00:59:31,42.805,6.029,CST-1368DR,4073,4287,11150,01.347,553
2023-12-30T01:02:33,42.805,6.029,CST-1368DR,4073,4287,11151,01.347,553
2023-12-30T01:05:34,42.805,6.029,CST-1368DR,4073,4287,11151,01.347,553
2023-12-30T01:08:36,42.805,6.029,CST-1368DR,4073,4288,11152,01.347,553
2023-12-30T01:11:37,42.805,6.029,CST-1368DR,4073,4288,11153,01.346,553
2023-12-30T01:14:39,42.805,6.029,CST-1368DR,4073,4288,11153,01.346,553
2023-12-30T01:17:40,42.805,6.029,CST-1368DR,4073,4288,11154,01.346,553
2023-12-30T01:20:42,42.805,6.029,CST-1368DR,4073,4286,11148,01.348,553
2023-12-30T01:23:44,42.805,6.029,CST-1368DR,4073,4286,11148,01.348,553
2023-12-30T01:26:45,42.805,6.029,CST-1368DR,4073,4288,11152,01.347,553
2023-12-30T01:29:47,42.805,6.029,CST-1368DR,4073,4289,11155,01.346,553
2023-12-30T01:32:48,42.805,6.029,CST-1368DR,4073,4289,11155,01.346,553
2023-12-30T01:35:50,42.805,6.029,CST-1368DR,4073,4289,11154,01.346,553
2023-12-30T01:38:52,42.805,6.029,CST-1368DR,4073,4288,11152,01.347,553
2023-12-30T01:41:53,42.805,6.029,CST-1368DR,4073,4288,11152,01.347,553
2023-12-30T01:44:55,42.805,6.029,CST-1368DR,4073,4288,11152,01.347,553
2023-12-30T01:47:56,42.805,6.029,CST-1368DR,4073,4288,11153,01.346,553
2023-12-30T01:50:58,42.805,6.029,CST-1368DR,4073,4288,11154,01.346,553
2023-12-30T01:53:59,42.805,6.029,CST-1368DR,4073,4287,11150,01.347,553
2023-12-30T01:57:01,42.805,6.029,CST-1368DR,4073,4287,11150,01.347,553
2023-12-30T02:00:03,42.805,6.029,CST-1368DR,4073,4285,11146,01.349,553
2023-12-30T02:03:04,42.805,6.029,CST-1368DR,4073,4284,11143,01.350,553
2023-12-30T02:06:06,42.805,6.029,CST-1368DR,4073,4288,11153,01.346,553
2023-12-30T02:09:07,42.805,6.029,CST-1368DR,4073,4287,11149,01.348,553
2023-12-30T02:12:09,42.805,6.029,CST-1368DR,4073,4288,11152,01.347,553
2023-12-30T02:15:10,42.805,6.029,CST-1368DR,4073,4287,11149,01.348,553
2023-12-30T02:18:12,42.805,6.029,CST-1368DR,4073,4287,11149,01.348,553
2023-12-30T02:21:14,42.805,6.029,CST-1368DR,4073,4287,11151,01.347,553
2023-12-30T02:24:15,42.805,6.029,CST-1368DR,4073,4285,11145,01.349,553
2023-12-30T02:27:17,42.805,6.029,CST-1368DR,4073,4288,11154,01.346,553
2023-12-30T02:30:18,42.805,6.029,CST-1368DR,4073,4288,11152,01.347,552
2023-12-30T02:33:20,42.805,6.029,CST-1368DR,4073,4286,11148,01.348,553
2023-12-30T02:36:22,42.805,6.029,CST-1368DR,4073,4287,11151,01.347,553
2023-12-30T02:39:23,42.805,6.029,CST-1368DR,4073,4288,11152,01.347,553
2023-12-30T02:42:25,42.805,6.029,CST-1368DR,4073,4288,11152,01.347,553
2023-12-30T02:45:26,42.805,6.029,CST-1368DR,4073,4288,11154,01.346,553
2023-12-30T02:48:28,42.805,6.029,CST-1368DR,4073,4290,11157,01.345,553
2023-12-30T02:51:29,42.805,6.029,CST-1368DR,4073,4288,11154,01.346,553
2023-12-30T02:54:31,42.805,6.029,CST-1368DR,4073,4290,11158,01.345,553
2023-12-30T02:57:33,42.805,6.029,CST-1368DR,4073,4288,11153,01.346,553
2023-12-30T03:00:34,42.805,6.029,CST-1368DR,4073,4289,11154,01.346,553
2023-12-30T03:03:36,42.805,6.029,CST-1368DR,4073,4287,11150,01.347,553
2023-12-30T03:06:37,42.805,6.029,CST-1368DR,4073,4287,11150,01.347,553
2023-12-30T03:09:39,42.805,6.029,CST-1368DR,4073,4287,11150,01.347,553
2023-12-30T03:12:40,42.805,6.029,CST-1368DR,4073,4290,11157,01.345,553
2023-12-30T03:15:42,42.805,6.029,CST-1368DR,4073,4287,11151,01.347,553
2023-12-30T03:18:44,42.805,6.029,CST-1368DR,4073,4285,11144,01.350,553
2023-12-30T03:21:45,42.805,6.029,CST-1368DR,4073,4288,11152,01.347,553
2023-12-30T03:24:47,42.805,6.029,CST-1368DR,4073,4288,11154,01.346,553
2023-12-30T03:27:48,42.805,6.029,CST-1368DR,4073,4289,11154,01.346,553
2023-12-30T03:30:50,42.805,6.029,CST-1368DR,4073,4288,11153,01.346,553
2023-12-30T03:33:52,42.805,6.029,CST-1368DR,4073,4288,11152,01.347,553
2023-12-30T03:36:53,42.805,6.029,CST-1368DR,4073,4288,11152,01.347,553
2023-12-30T03:39:55,42.805,6.029,CST-1368DR,4073,4289,11155,01.346,553
2023-12-30T03:42:56,42.805,6.029,CST-1368DR,4073,4289,11155,01.346,553
2023-12-30T03:45:58,42.805,6.029,CST-1368DR,4073,4288,11152,01.347,553
2023-12-30T03:48:59,42.805,6.029,CST-1368DR,4073,4287,11151,01.347,553
2023-12-30T03:52:01,42.805,6.029,CST-1368DR,4073,4288,11152,01.347,553
2023-12-30T03:55:03,42.805,6.029,CST-1368DR,4073,4288,11152,01.347,553
2023-12-30T03:58:04,42.805,6.029,CST-1368DR,4073,4287,11150,01.347,553
2023-12-30T04:01:06,42.805,6.029,CST-1368DR,4073,4288,11152,01.347,553
2023-12-30T04:04:07,42.805,6.029,CST-1368DR,4073,4288,11154,01.346,553
2023-12-30T04:07:09,42.805,6.029,CST-1368DR,4073,4287,11149,01.348,553
2023-12-30T04:10:10,42.805,6.029,CST-1368DR,4073,4288,11152,01.347,552
2023-12-30T04:13:12,42.805,6.029,CST-1368DR,4073,4284,11142,01.350,553
2023-12-30T04:16:14,42.805,6.029,CST-1368DR,4073,4289,11156,01.345,553
2023-12-30T04:19:15,42.805,6.029,CST-1368DR,4073,4288,11153,01.346,553
2023-12-30T04:22:17,42.805,6.029,CST-1368DR,4073,4288,11154,01.346,553
2023-12-30T04:25:18,42.805,6.029,CST-1368DR,4073,4287,11151,01.347,553
2023-12-30T04:28:20,42.805,6.029,CST-1368DR,4073,4290,11157,01.345,553
2023-12-30T04:31:21,42.805,6.029,CST-1368DR,4073,4288,11153,01.346,553
2023-12-30T04:34:23,42.805,6.029,CST-1368DR,4073,4287,11150,01.347,553
2023-12-30T04:37:25,42.805,6.029,CST-1368DR,4073,4287,11151,01.347,553
2023-12-30T04:40:26,42.805,6.029,CST-1368DR,4073,4286,11148,01.348,553
2023-12-30T04:43:28,42.805,6.029,CST-1368DR,4073,4285,11145,01.349,553
2023-12-30T04:46:29,42.805,6.029,CST-1368DR,4073,4289,11154,01.346,553
2023-12-30T04:49:31,42.805,6.029,CST-1368DR,4073,4287,11150,01.347,553
2023-12-30T04:52:33,42.805,6.029,CST-1368DR,4073,4287,11149,01.348,553
2023-12-30T04:55:34,42.805,6.029,CST-1368DR,4073,4286,11148,01.348,553
2023-12-30T04:58:36,42.805,6.029,CST-1368DR,4073,4287,11151,01.347,553
2023-12-30T05:01:37,42.805,6.029,CST-1368DR,4073,4289,11156,01.345,553
2023-12-30T05:04:39,42.805,6.029,CST-1368DR,4073,4287,11150,01.347,553
2023-12-30T05:07:40,42.805,6.029,CST-1368DR,4072,4282,11139,01.351,553
2023-12-30T05:10:42,42.805,6.029,CST-1368DR,4072,4287,11153,01.346,553
2023-12-30T05:13:44,42.805,6.029,CST-1368DR,4073,4289,11154,01.346,553
2023-12-30T05:16:45,42.805,6.029,CST-1368DR,4073,4287,11151,01.347,553
2023-12-30T05:19:47,42.805,6.029,CST-1368DR,4073,4288,11153,01.346,553
2023-12-30T05:22:48,42.805,6.029,CST-1368DR,4073,4289,11156,01.345,553
2023-12-30T05:25:50,42.805,6.029,CST-1368DR,4073,4289,11155,01.346,553
2023-12-30T05:28:52,42.805,6.029,CST-1368DR,4073,4289,11154,01.346,553
2023-12-30T05:31:54,42.805,6.029,CST-1368DR,4073,4288,11153,01.346,553
2023-12-30T05:34:56,42.805,6.029,CST-1368DR,4073,4288,11152,01.347,553
2023-12-30T05:37:57,42.805,6.029,CST-1368DR,4073,4288,11153,01.346,553
2023-12-30T05:40:59,42.805,6.029,CST-1368DR,4073,4287,11151,01.347,553
2023-12-30T05:44:00,42.805,6.029,CST-1368DR,4073,4288,11154,01.346,553
2023-12-30T05:47:02,42.805,6.029,CST-1368DR,4073,4290,11157,01.345,553
2023-12-30T05:50:03,42.805,6.029,CST-1368DR,4073,4288,11154,01.346,553
2023-12-30T05:53:05,42.805,6.029,CST-1368DR,4073,4289,11156,01.345,553
2023-12-30T05:56:07,42.805,6.029,CST-1368DR,4073,4290,11158,01.345,553
2023-12-30T05:59:08,42.805,6.029,CST-1368DR,4073,4289,11154,01.346,553
2023-12-30T06:02:10,42.805,6.029,CST-1368DR,4073,4288,11152,01.347,553
2023-12-30T06:05:11,42.805,6.029,CST-1368DR,4073,4288,11152,01.347,553
2023-12-30T06:08:13,42.805,6.029,CST-1368DR,4072,4289,11158,01.345,553
2023-12-30T06:11:14,42.805,6.029,CST-1368DR,4073,4289,11154,01.346,553
2023-12-30T06:14:16,42.805,6.029,CST-1368DR,4073,4288,11152,01.347,553
2023-12-30T06:17:18,42.805,6.029,CST-1368DR,4073,4287,11149,01.348,553
2023-12-30T06:20:19,42.805,6.029,CST-1368DR,4073,4288,11152,01.347,553
2023-12-30T06:23:21,42.805,6.029,CST-1368DR,4073,4288,11152,01.347,553
2023-12-30T06:26:22,42.805,6.029,CST-1368DR,4073,4288,11152,01.347,553
2023-12-30T06:29:24,42.805,6.029,CST-1368DR,4072,4288,11156,01.345,553
2023-12-30T06:32:25,42.805,6.029,CST-1368DR,4073,4288,11154,01.346,553
2023-12-30T06:35:27,42.805,6.029,CST-1368DR,4072,4288,11154,01.346,553
2023-12-30T06:38:29,42.805,6.029,CST-1368DR,4072,4288,11155,01.346,553
2023-12-30T06:41:30,42.805,6.029,CST-1368DR,4073,4287,11151,01.347,553
2023-12-30T06:44:32,42.805,6.029,CST-1368DR,4073,4286,11147,01.349,553
2023-12-30T06:47:33,42.805,6.029,CST-1368DR,4072,4288,11155,01.346,553
2023-12-30T06:50:35,42.805,6.029,CST-1368DR,4072,4289,11157,01.345,553
2023-12-30T06:53:37,42.805,6.029,CST-1368DR,4073,4288,11153,01.346,553
2023-12-30T06:56:38,42.805,6.029,CST-1368DR,4073,4289,11154,01.346,553
2023-12-30T06:59:40,42.805,6.029,CST-1368DR,4072,4288,11154,01.346,553
2023-12-30T07:02:41,42.805,6.029,CST-1368DR,4073,4289,11154,01.346,553
2023-12-30T07:05:43,42.805,6.029,CST-1368DR,4073,4288,11152,01.347,553
2023-12-30T07:08:44,42.805,6.029,CST-1368DR,4073,4290,11157,01.345,553
2023-12-30T07:11:46,42.805,6.029,CST-1368DR,4073,4288,11152,01.347,553
2023-12-30T07:14:48,42.805,6.029,CST-1368DR,4072,4289,11158,01.345,553
2023-12-30T07:17:49,42.805,6.029,CST-1368DR,4073,4289,11156,01.345,553
2023-12-30T07:20:51,42.805,6.029,CST-1368DR,4072,4283,11142,01.350,553
2023-12-30T07:23:52,42.805,6.029,CST-1368DR,4072,4284,11145,01.349,553
2023-12-30T07:26:54,42.805,6.029,CST-1368DR,4072,4285,11147,01.349,553
2023-12-30T07:29:55,42.805,6.029,CST-1368DR,4072,4284,11145,01.349,553
2023-12-30T07:32:58,42.805,6.029,CST-1368DR,4073,4283,11141,01.351,553
2023-12-30T07:36:00,42.805,6.029,CST-1368DR,4072,4283,11143,01.350,553
2023-12-30T07:39:01,42.805,6.029,CST-1368DR,4072,4284,11144,01.350,553
2023-12-30T07:42:03,42.805,6.029,CST-1368DR,4072,4283,11141,01.351,553
2023-12-30T07:45:04,42.805,6.029,CST-1368DR,4073,4283,11139,01.351,553
2023-12-30T07:48:06,42.805,6.029,CST-1368DR,4073,4283,11140,01.351,553
2023-12-30T07:51:08,42.805,6.029,CST-1368DR,4073,4282,11137,01.352,553
2023-12-30T07:54:09,42.805,6.029,CST-1368DR,4073,4284,11143,01.350,553
2023-12-30T07:57:11,42.805,6.029,CST-1368DR,4073,4283,11139,01.351,553
2023-12-30T08:00:12,42.805,6.029,CST-1368DR,4073,4284,11143,01.350,553
2023-12-30T08:03:14,42.805,6.029,CST-1368DR,4073,4284,11143,01.350,553
2023-12-30T08:06:15,42.805,6.029,CST-1368DR,4073,4284,11142,01.350,553
2023-12-30T08:09:17,42.805,6.029,CST-1368DR,4073,4285,11144,01.350,553
2023-12-30T08:12:19,42.805,6.029,CST-1368DR,4073,4284,11143,01.350,553
2023-12-30T08:15:20,42.805,6.029,CST-1368DR,4072,4285,11147,01.349,553
2023-12-30T08:18:22,42.805,6.029,CST-1368DR,4073,4283,11139,01.351,553
2023-12-30T08:21:23,42.805,6.029,CST-1368DR,4072,4282,11139,01.351,553
2023-12-30T08:24:25,42.805,6.029,CST-1368DR,4073,4283,11141,01.351,553
2023-12-30T08:27:26,42.805,6.029,CST-1368DR,4072,4283,11141,01.351,553
2023-12-30T08:30:28,42.805,6.029,CST-1368DR,4072,4282,11139,01.351,553
2023-12-30T08:33:30,42.805,6.029,CST-1368DR,4072,4282,11139,01.351,553
2023-12-30T08:36:31,42.805,6.029,CST-1368DR,4073,4284,11141,01.351,553
2023-12-30T08:39:33,42.805,6.029,CST-1368DR,4072,4285,11147,01.349,553
2023-12-30T08:42:34,42.805,6.029,CST-1368DR,4072,4283,11142,01.350,553
2023-12-30T08:45:36,42.805,6.029,CST-1368DR,4072,4284,11145,01.349,553
2023-12-30T08:48:38,42.805,6.029,CST-1368DR,4073,4284,11143,01.350,553
2023-12-30T08:51:39,42.805,6.029,CST-1368DR,4072,4285,11147,01.349,553
2023-12-30T08:54:41,42.805,6.029,CST-1368DR,4072,4284,11145,01.349,553
2023-12-30T08:57:42,42.805,6.029,CST-1368DR,4072,4283,11142,01.350,553
2023-12-30T09:00:44,42.805,6.029,CST-1368DR,4072,4282,11139,01.351,553
2023-12-30T09:03:45,42.805,6.029,CST-1368DR,4072,4282,11140,01.351,553
2023-12-30T09:06:47,42.805,6.029,CST-1368DR,4072,4283,11143,01.350,553
2023-12-30T09:09:49,42.805,6.029,CST-1368DR,4072,4282,11140,01.351,553
2023-12-30T09:12:50,42.805,6.029,CST-1368DR,4072,4283,11143,01.350,553
2023-12-30T09:15:52,42.805,6.029,CST-1368DR,4072,4282,11140,01.351,553
2023-12-30T09:18:53,42.805,6.029,CST-1368DR,4072,4279,11132,01.354,553
2023-12-30T09:21:55,42.805,6.029,CST-1368DR,4072,4282,11139,01.351,553
2023-12-30T09:24:56,42.805,6.029,CST-1368DR,4072,4283,11142,01.350,553
2023-12-30T09:27:58,42.805,6.029,CST-1368DR,4072,4284,11145,01.349,553
2023-12-30T09:31:01,42.805,6.029,CST-1368DR,4072,4284,11145,01.349,553
2023-12-30T09:34:03,42.805,6.029,CST-1368DR,4072,4283,11143,01.350,553
2023-12-30T09:37:04,42.805,6.029,CST-1368DR,4072,4283,11141,01.351,553
2023-12-30T09:40:06,42.805,6.029,CST-1368DR,4072,4284,11145,01.349,553
2023-12-30T09:43:08,42.805,6.029,CST-1368DR,4072,4284,11144,01.350,553
2023-12-30T09:46:09,42.805,6.029,CST-1368DR,4072,4281,11138,01.352,553
2023-12-30T09:49:11,42.805,6.029,CST-1368DR,4072,4282,11139,01.351,553
2023-12-30T09:52:12,42.805,6.029,CST-1368DR,4072,4281,11137,01.352,553
2023-12-30T09:55:14,42.805,6.029,CST-1368DR,4072,4280,11133,01.354,553
2023-12-30T09:58:15,42.805,6.029,CST-1368DR,4072,4281,11138,01.352,553
2023-12-30T10:01:17,42.805,6.029,CST-1368DR,4072,4281,11138,01.352,553
2023-12-30T10:04:19,42.805,6.029,CST-1368DR,4072,4283,11141,01.351,553
2023-12-30T10:07:20,42.805,6.029,CST-1368DR,4072,4280,11135,01.353,553
2023-12-30T10:10:22,42.805,6.029,CST-1368DR,4072,4282,11139,01.351,553
2023-12-30T10:13:23,42.805,6.029,CST-1368DR,4072,4283,11143,01.350,553
2023-12-30T10:16:25,42.805,6.029,CST-1368DR,4072,4283,11142,01.350,553
2023-12-30T10:19:26,42.805,6.029,CST-1368DR,4072,4281,11138,01.352,553
2023-12-30T10:22:28,42.805,6.029,CST-1368DR,4072,4281,11136,01.352,553
2023-12-30T10:25:30,42.805,6.029,CST-1368DR,4072,4282,11139,01.351,553
2023-12-30T10:28:31,42.805,6.029,CST-1368DR,4072,4282,11140,01.351,553
2023-12-30T10:31:33,42.805,6.029,CST-1368DR,4072,4281,11138,01.352,553
2023-12-30T10:34:34,42.805,6.029,CST-1368DR,4072,4284,11145,01.349,553
2023-12-30T10:37:36,42.805,6.029,CST-1368DR,4072,4283,11143,01.350,553
2023-12-30T10:40:37,42.805,6.029,CST-1368DR,4072,4283,11142,01.350,553
2023-12-30T10:43:39,42.805,6.029,CST-1368DR,4072,4283,11143,01.350,553
2023-12-30T10:46:41,42.805,6.029,CST-1368DR,4072,4282,11140,01.351,553
2023-12-30T10:49:42,42.805,6.029,CST-1368DR,4072,4283,11142,01.350,553
2023-12-30T10:52:44,42.805,6.029,CST-1368DR,4072,4283,11141,01.351,553
2023-12-30T10:55:45,42.805,6.029,CST-1368DR,4072,4282,11139,01.351,553
2023-12-30T10:58:47,42.805,6.029,CST-1368DR,4072,4283,11141,01.351,553
2023-12-30T11:01:49,42.805,6.029,CST-1368DR,4072,4282,11139,01.351,553
2023-12-30T11:04:50,42.805,6.029,CST-1368DR,4072,4282,11139,01.351,553
2023-12-30T11:07:52,42.805,6.029,CST-1368DR,4072,4283,11141,01.351,553
2023-12-30T11:10:53,42.805,6.029,CST-1368DR,4072,4280,11133,01.354,553
2023-12-30T11:13:55,42.805,6.029,CST-1368DR,4072,4281,11137,01.352,553
2023-12-30T11:16:56,42.805,6.029,CST-1368DR,4072,4283,11142,01.350,553
2023-12-30T11:19:58,42.805,6.029,CST-1368DR,4072,4281,11137,01.352,553
2023-12-30T11:23:00,42.805,6.029,CST-1368DR,4072,4282,11139,01.351,553
2023-12-30T11:26:01,42.805,6.029,CST-1368DR,4072,4283,11143,01.350,553
2023-12-30T11:29:03,42.805,6.029,CST-1368DR,4072,4281,11137,01.352,553
2023-12-30T11:32:04,42.805,6.029,CST-1368DR,4072,4282,11140,01.351,553
2023-12-30T11:35:06,42.805,6.029,CST-1368DR,4072,4282,11139,01.351,553
2023-12-30T11:38:08,42.805,6.029,CST-1368DR,4072,4281,11137,01.352,553
2023-12-30T11:41:09,42.805,6.029,CST-1368DR,4072,4281,11138,01.352,553
2023-12-30T11:44:11,42.805,6.029,CST-1368DR,4072,4281,11137,01.352,553
2023-12-30T11:47:12,42.805,6.029,CST-1368DR,4072,4280,11135,01.353,553
2023-12-30T11:50:14,42.805,6.029,CST-1368DR,4072,4281,11138,01.352,553
2023-12-30T11:53:16,42.805,6.029,CST-1368DR,4072,4280,11133,01.354,553
2023-12-30T11:56:17,42.805,6.029,CST-1368DR,4072,4282,11139,01.351,553
2023-12-30T11:59:19,42.805,6.029,CST-1368DR,4072,4282,11139,01.351,553
2023-12-30T12:02:20,42.805,6.029,CST-1368DR,4072,4279,11131,01.354,553
2023-12-30T12:05:22,42.805,6.029,CST-1368DR,4072,4280,11135,01.353,553
2023-12-30T12:08:23,42.805,6.029,CST-1368DR,4072,4282,11139,01.351,553
2023-12-30T12:11:25,42.805,6.029,CST-1368DR,4072,4280,11135,01.353,553
2023-12-30T12:14:27,42.805,6.029,CST-1368DR,4072,4280,11135,01.353,553
2023-12-30T12:17:28,42.805,6.029,CST-1368DR,4072,4281,11136,01.352,553
2023-12-30T12:20:30,42.805,6.029,CST-1368DR,4072,4280,11135,01.353,553
2023-12-30T12:23:31,42.805,6.029,CST-1368DR,4072,4281,11137,01.352,553
2023-12-30T12:26:33,42.805,6.029,CST-1368DR,4072,4280,11135,01.353,553
2023-12-30T12:29:34,42.805,6.029,CST-1368DR,4072,4279,11132,01.354,553
2023-12-30T12:32:36,42.805,6.029,CST-1368DR,4072,4280,11134,01.353,553
2023-12-30T12:35:38,42.805,6.029,CST-1368DR,4072,4280,11135,01.353,553
2023-12-30T12:38:39,42.805,6.029,CST-1368DR,4072,4277,11126,01.356,553
2023-12-30T12:41:41,42.805,6.029,CST-1368DR,4072,4280,11135,01.353,553
2023-12-30T12:44:42,42.805,6.029,CST-1368DR,4072,4283,11142,01.350,553
2023-12-30T12:47:44,42.805,6.029,CST-1368DR,4072,4283,11143,01.350,553
2023-12-30T12:50:46,42.805,6.029,CST-1368DR,4072,4281,11136,01.352,553
2023-12-30T12:53:47,42.805,6.029,CST-1368DR,4072,4281,11136,01.352,553
2023-12-30T12:56:49,42.805,6.029,CST-1368DR,4072,4281,11136,01.352,553
2023-12-30T12:59:50,42.805,6.029,CST-1368DR,4072,4280,11134,01.353,553
2023-12-30T13:02:52,42.805,6.029,CST-1368DR,4072,4282,11140,01.351,553
2023-12-30T13:05:53,42.805,6.029,CST-1368DR,4072,4281,11136,01.352,553
2023-12-30T13:08:55,42.805,6.029,CST-1368DR,4072,4280,11133,01.354,553
2023-12-30T13:11:57,42.805,6.029,CST-1368DR,4072,4280,11134,01.353,553
2023-12-30T13:14:58,42.805,6.029,CST-1368DR,4072,4283,11142,01.350,553
2023-12-30T13:18:00,42.805,6.029,CST-1368DR,4072,4279,11132,01.354,553
2023-12-30T13:21:01,42.805,6.029,CST-1368DR,4072,4281,11136,01.352,553
2023-12-30T13:24:03,42.805,6.029,CST-1368DR,4072,4283,11142,01.350,553
2023-12-30T13:27:04,42.805,6.029,CST-1368DR,4072,4281,11138,01.352,553
2023-12-30T13:30:06,42.805,6.029,CST-1368DR,4072,4279,11132,01.354,553
2023-12-30T13:33:08,42.805,6.029,CST-1368DR,4072,4282,11140,01.351,553
2023-12-30T13:36:09,42.805,6.029,CST-1368DR,4072,4281,11137,01.352,553
2023-12-30T13:39:11,42.805,6.029,CST-1368DR,4072,4278,11130,01.355,553
2023-12-30T13:42:13,42.805,6.029,CST-1368DR,4072,4279,11132,01.354,553
2023-12-30T13:45:14,42.805,6.029,CST-1368DR,4072,4277,11126,01.356,553
2023-12-30T13:48:16,42.805,6.029,CST-1368DR,4072,4280,11135,01.353,553
2023-12-30T13:51:17,42.805,6.029,CST-1368DR,4072,4280,11134,01.353,553
2023-12-30T13:54:19,42.805,6.029,CST-1368DR,4072,4283,11141,01.351,553
2023-12-30T13:57:20,42.805,6.029,CST-1368DR,4072,4282,11139,01.351,553
2023-12-30T14:00:22,42.805,6.029,CST-1368DR,4072,4278,11129,01.355,553
2023-12-30T14:03:24,42.805,6.029,CST-1368DR,4072,4279,11132,01.354,553
2023-12-30T14:06:25,42.805,6.029,CST-1368DR,4072,4283,11143,01.350,553
2023-12-30T14:09:27,42.805,6.029,CST-1368DR,4072,4279,11131,01.354,553
2023-12-30T14:12:28,42.805,6.029,CST-1368DR,4072,4280,11134,01.353,553
2023-12-30T14:15:30,42.805,6.029,CST-1368DR,4072,4281,11136,01.352,553
2023-12-30T14:18:31,42.805,6.029,CST-1368DR,4072,4281,11136,01.352,553
2023-12-30T14:21:33,42.805,6.029,CST-1368DR,4072,4281,11136,01.352,553
2023-12-30T14:24:35,42.805,6.029,CST-1368DR,4072,4283,11143,01.350,553
2023-12-30T14:27:36,42.805,6.029,CST-1368DR,4072,4278,11129,01.355,553
2023-12-30T14:30:38,42.805,6.029,CST-1368DR,4072,4280,11133,01.354,553
2023-12-30T14:33:39,42.805,6.029,CST-1368DR,4072,4280,11135,01.353,553
2023-12-30T14:36:41,42.805,6.029,CST-1368DR,4072,4281,11136,01.352,553
2023-12-30T14:39:43,42.805,6.029,CST-1368DR,4072,4280,11134,01.353,553
2023-12-30T14:42:44,42.805,6.029,CST-1368DR,4072,4282,11139,01.351,553
2023-12-30T14:45:46,42.805,6.029,CST-1368DR,4072,4280,11135,01.353,553
2023-12-30T14:48:47,42.805,6.029,CST-1368DR,4072,4280,11135,01.353,553
2023-12-30T14:51:49,42.805,6.029,CST-1368DR,4072,4279,11131,01.354,553
2023-12-30T14:54:50,42.805,6.029,CST-1368DR,4072,4279,11131,01.354,553
2023-12-30T14:57:52,42.805,6.029,CST-1368DR,4072,4278,11130,01.355,553
2023-12-30T15:00:54,42.805,6.029,CST-1368DR,4072,4279,11131,01.354,553
2023-12-30T15:03:55,42.805,6.029,CST-1368DR,4072,4278,11130,01.355,553
2023-12-30T15:06:57,42.805,6.029,CST-1368DR,4072,4280,11135,01.353,553
2023-12-30T15:09:58,42.805,6.029,CST-1368DR,4072,4279,11133,01.354,553
2023-12-30T15:13:00,42.805,6.029,CST-1368DR,4072,4280,11135,01.353,553
2023-12-30T15:16:01,42.805,6.029,CST-1368DR,4072,4281,11137,01.352,553
2023-12-30T15:19:03,42.805,6.029,CST-1368DR,4072,4281,11136,01.352,553
2023-12-30T15:22:05,42.805,6.029,CST-1368DR,4072,4280,11134,01.353,553
2023-12-30T15:25:06,42.805,6.029,CST-1368DR,4072,4280,11133,01.354,553
2023-12-30T15:28:08,42.805,6.029,CST-1368DR,4072,4280,11135,01.353,553
2023-12-30T15:31:11,42.805,6.029,CST-1368DR,4072,4281,11137,01.352,553
2023-12-30T15:34:12,42.805,6.029,CST-1368DR,4072,4280,11133,01.354,553
2023-12-30T15:37:14,42.805,6.029,CST-1368DR,4072,4280,11135,01.353,553
2023-12-30T15:40:16,42.805,6.029,CST-1368DR,4072,4281,11136,01.352,553
2023-12-30T15:43:17,42.805,6.029,CST-1368DR,4072,4280,11135,01.353,553
2023-12-30T15:46:19,42.805,6.029,CST-1368DR,4072,4281,11136,01.352,553
2023-12-30T15:49:20,42.805,6.029,CST-1368DR,4072,4281,11137,01.352,553
2023-12-30T15:52:22,42.805,6.029,CST-1368DR,4072,4281,11136,01.352,553
2023-12-30T15:55:24,42.805,6.029,CST-1368DR,4072,4280,11135,01.353,553
2023-12-30T15:58:25,42.805,6.029,CST-1368DR,4072,4281,11136,01.352,553
2023-12-30T16:01:27,42.805,6.029,CST-1368DR,4072,4280,11135,01.353,553
2023-12-30T16:04:28,42.805,6.029,CST-1368DR,4072,4280,11135,01.353,553
2023-12-30T16:07:30,42.805,6.029,CST-1368DR,4072,4280,11135,01.353,553
2023-12-30T16:10:31,42.805,6.029,CST-1368DR,4072,4280,11133,01.354,553
2023-12-30T16:13:33,42.805,6.029,CST-1368DR,4072,4283,11143,01.350,553
2023-12-30T16:16:35,42.805,6.029,CST-1368DR,4072,4280,11135,01.353,553
2023-12-30T16:19:36,42.805,6.029,CST-1368DR,4072,4281,11137,01.352,553
2023-12-30T16:22:38,42.805,6.029,CST-1368DR,4072,4283,11143,01.350,553
2023-12-30T16:25:39,42.805,6.029,CST-1368DR,4072,4282,11140,01.351,553
2023-12-30T16:28:41,42.805,6.029,CST-1368DR,4072,4280,11135,01.353,553
2023-12-30T16:31:42,42.805,6.029,CST-1368DR,4072,4281,11137,01.352,553
2023-12-30T16:34:44,42.805,6.029,CST-1368DR,4072,4282,11139,01.351,553
2023-12-30T16:37:46,42.805,6.029,CST-1368DR,4072,4281,11137,01.352,553